{"data":{"norad_id":56503,"epoch":"2026-09-20T05:23:07.569024Z","epoch_age_seconds":138642,"freshness":"FRESH","line1":"1 56503U 23065A   26263.22439316 -.00000092  00000+0  61953-5 0  9994","line2":"2 56503  43.0015 193.6602 0001124 255.5031 104.5696 15.27576964186356","mean_motion":15.27576964,"eccentricity":0.0001124,"inclination_deg":43.0015,"raan_deg":193.6602,"arg_perigee_deg":255.5031,"mean_anomaly_deg":104.5696,"bstar":6.1953e-6,"rev_number":18635,"period_min":94.266936065161,"perigee_km":482.28698859189,"apogee_km":483.82938526991,"semimajor_km":6861.1951869309,"source":"CELESTRAK","updated_at":"2026-09-21T09:00:33.468883Z"}}